STARLINK-3986, 52623

Orbit data source: Space-Track

STARLINK-3986, 52623 is a payload satellite owned by SpaceX/Seattle (US) in LEO that was launched on Sat, 14 May 2022 UTC via an FALCON 9 launch vehicle from the Air Force Eastern Test Range (AFETR). Payload-class satellites include a variety of spacecraft equipped with specific instruments for various scientific and technological missions. These include communications satellites like Starlink; space stations such as the ISS; scientific satellites like the Hubble; Earth observation satellites from companies like Planet Labs, Umbra, and HawkEye 360; GPS; miniature CubeSats for education and research; and military/defense satellites.

Loading next visibility...
Identifier
52623, 2022-052AB
Orbit
LEO
Country
Flag of USUS
Related business
Manufacturer
SpaceX/Seattle
Mission
Operational Commercial Communications
Bus & Motor
STARLINK, Unknown motor
Mass
297 kg wet, ~275 kg dry
Launch date (UTC)
2022-05-14 (4 years ago)
Launch vehicle
FALCON 9
Launch site
Air Force Eastern Test Range (AFETR)
Object type
Payload
Rocket body
Debris
Shape & HBR
Box + 1 Pan, 10.1 m
Radar Cross Section
13.562 m², Large (>1 m²)

Expand to show TLE details & history
Last TLE update: 2 days ago

TLE from 2 days ago
0 STARLINK-3986
1 52623U 22052AB  26171.26995536 -.00000349  00000-0 -38239-5 0  9999
2 52623  53.1599 168.5058 0001242  78.0190 282.0940 15.08834246226476
Epoch: 2026-06-20T06:28Z
TLE epoch observation values (Epoch: 2026-06-20T06:28:44.143Z)
Latitude
-0.00005°
Longitude
162.83484°
Altitude
540.472 km
Speed
7.593 km/s
True Right ascension
11h 14m 01s
True Declination
0° 00' 00"
Sunlit
Object was in daylight at epoch
Visualization orbit readout
Latitude
Unknown
Longitude
Unknown
Altitude
Unknown
Speed
Unknown
Apparent Right ascension
Unknown
Apparent Declination
Unknown
Sunlit
N/A
Visualization observer readout
Local Sidereal Time
21:29:44
Azimuth
Unknown
Elevation
Unknown
Doppler factor
Unknown
Orbital elements
Apogee altitude
540.874 km
Perigee altitude
539.156 km
Semi-major axis
6,918.152 km
Eccentricity
0.00012
Inclination
53.1599°
RAAN
168.5058°
Arg. of periapsis
78.019°
True anomaly
282.08008°
Mean anomaly
282.094°
Eccentric anomaly
282.08704°
Mean motion
3.77188 °/min
Orbital period
95.44 mins
BSTAR
-0.0000038239
Loading maneuver chart data...
Computing Atmospheric mass density...
Loading historical data...
Loading historical data...
Loading historical data...
Loading historical data...
Loading historical data...
Loading historical data...
Loading historical data...

Documentation

Showing up to 5 results
|